| time (UTC) | temp F | wind direction | speed knots | gust knots | rain 1hr in | rain 24hr in | rain mn in | humidity % | barometer mb |
| 20260510193935 | 58 | 0.0 | 0.0 | 0.00 | 0.00 | 0.00 | 59 | 946.0 | |
| 20260510193635 | 58 | 0.0 | 0.0 | 0.00 | 0.00 | 0.00 | 59 | 946.0 | |
| 20260510193335 | 58 | 0.0 | 0.0 | 0.00 | 0.00 | 0.00 | 59 | 946.0 | |
| 20260510193036 | 58 | 0.0 | 0.0 | 0.00 | 0.00 | 0.00 | 59 | 946.0 | |
| 20260510192736 | 59 | 0.0 | 0.0 | 0.00 | 0.00 | 0.00 | 58 | 946.0 | |
| 20260510192435 | 59 | 0.0 | 0.0 | 0.00 | 0.00 | 0.00 | 58 | 946.0 | |
| 20260510192135 | 59 | 0.0 | 0.0 | 0.00 | 0.00 | 0.00 | 58 | 946.0 | |
| 20260510191536 | 59 | 0.0 | 0.0 | 0.00 | 0.00 | 0.00 | 58 | 946.0 | |
| 20260510191236 | 60 | 0.0 | 0.0 | 0.00 | 0.00 | 0.00 | 58 | 946.6 | |
| 20260510190636 | 60 | 0.0 | 0.0 | 0.00 | 0.00 | 0.00 | 56 | 946.0 | |
| 20260510190035 | 60 | 0.0 | 0.0 | 0.00 | 0.00 | 0.00 | 56 | 946.0 | |
| 20260510185736 | 60 | 0.0 | 0.0 | 0.00 | 0.00 | 0.00 | 56 | 946.0 | |
| 20260510185435 | 61 | 0.0 | 0.0 | 0.00 | 0.00 | 0.00 | 53 | 946.0 | |
| 20260510184836 | 61 | 0.0 | 0.0 | 0.00 | 0.00 | 0.00 | 53 | 946.0 | |
| 20260510183936 | 61 | 0.0 | 0.0 | 0.00 | 0.00 | 0.00 | 51 | 946.0 | |
| 20260510183336 | 61 | 0.0 | 0.0 | 0.00 | 0.00 | 0.00 | 51 | 946.0 | |
| 20260510183035 | 61 | 0.0 | 0.0 | 0.00 | 0.00 | 0.00 | 51 | 946.0 | |
| 20260510182736 | 61 | 0.0 | 0.0 | 0.00 | 0.00 | 0.00 | 53 | 946.0 | |
| 20260510182436 | 61 | 0.0 | 0.0 | 0.00 | 0.00 | 0.00 | 53 | 946.0 | |
| 20260510182136 | 61 | 0.0 | 0.0 | 0.00 | 0.00 | 0.00 | 53 | 946.0 | |
| 20260510181836 | 61 | 0.0 | 0.0 | 0.00 | 0.00 | 0.00 | 53 | 946.0 | |
| 20260510181236 | 60 | 0.0 | 0.0 | 0.00 | 0.00 | 0.00 | 53 | 946.0 | |
| 20260510180635 | 60 | 0.0 | 0.0 | 0.00 | 0.00 | 0.00 | 54 | 945.0 | |
| 20260510180335 | 60 | 0.0 | 0.0 | 0.00 | 0.00 | 0.00 | 54 | 945.0 | |
| 20260510175736 | 60 | 0.0 | 0.0 | 0.00 | 0.00 | 0.00 | 54 | 945.0 | |
| 20260510175436 | 60 | 0.0 | 0.0 | 0.00 | 0.00 | 0.00 | 54 | 945.0 | |
| 20260510175136 | 60 | 0.0 | 0.0 | 0.00 | 0.00 | 0.00 | 54 | 945.0 | |
| 20260510174836 | 62 | 0.0 | 0.0 | 0.00 | 0.00 | 0.00 | 52 | 945.7 | |
| 20260510174236 | 62 | 0.0 | 0.0 | 0.00 | 0.00 | 0.00 | 52 | 945.7 | |
| 20260510173936 | 62 | 0.0 | 0.0 | 0.00 | 0.00 | 0.00 | 52 | 945.7 | |
| 20260510173635 | 62 | 0.0 | 0.0 | 0.00 | 0.00 | 0.00 | 52 | 945.7 | |
| 20260510173335 | 62 | 0.0 | 0.0 | 0.00 | 0.00 | 0.00 | 52 | 945.7 | |
| 20260510173036 | 62 | 0.0 | 0.0 | 0.00 | 0.00 | 0.00 | 52 | 945.7 | |
| 20260510172736 | 62 | 0.0 | 0.0 | 0.00 | 0.00 | 0.00 | 52 | 945.7 | |
| 20260510172435 | 62 | 0.0 | 0.0 | 0.00 | 0.00 | 0.00 | 52 | 945.7 | |
| 20260510172135 | 62 | 0.0 | 0.0 | 0.00 | 0.00 | 0.00 | 52 | 945.7 | |
| 20260510171836 | 61 | 0.0 | 0.0 | 0.00 | 0.00 | 0.00 | 53 | 945.0 | |
| 20260510171535 | 61 | 0.0 | 0.0 | 0.00 | 0.00 | 0.00 | 53 | 945.0 | |
| 20260510170936 | 60 | 0.0 | 0.0 | 0.00 | 0.00 | 0.00 | 52 | 945.0 | |
| 20260510170336 | 60 | 0.0 | 0.0 | 0.00 | 0.00 | 0.00 | 52 | 945.0 | |
| 20260510170035 | 60 | 0.0 | 0.0 | 0.00 | 0.00 | 0.00 | 52 | 945.0 | |
| 20260510165735 | 60 | 0.0 | 0.0 | 0.00 | 0.00 | 0.00 | 52 | 945.0 | |
| 20260510165135 | 60 | 0.0 | 0.0 | 0.00 | 0.00 | 0.00 | 52 | 945.0 | |
| 20260510164835 | 60 | 0.0 | 0.0 | 0.00 | 0.00 | 0.00 | 52 | 945.0 | |
| 20260510164536 | 60 | 0.0 | 0.0 | 0.00 | 0.00 | 0.00 | 52 | 945.0 | |
| 20260510164236 | 60 | 0.0 | 0.0 | 0.00 | 0.00 | 0.00 | 52 | 945.0 | |
| 20260510163936 | 60 | 0.0 | 0.0 | 0.00 | 0.00 | 0.00 | 52 | 945.0 | |
| 20260510163635 | 60 | 0.0 | 0.0 | 0.00 | 0.00 | 0.00 | 56 | 945.7 | |
| 20260510163336 | 60 | 0.0 | 0.0 | 0.00 | 0.00 | 0.00 | 56 | 945.7 | |
| 20260510163036 | 60 | 0.0 | 0.0 | 0.00 | 0.00 | 0.00 | 56 | 945.7 | |
| 20260510162735 | 60 | 0.0 | 0.0 | 0.00 | 0.00 | 0.00 | 56 | 945.7 | |
| 20260510162435 | 60 | 0.0 | 0.0 | 0.00 | 0.00 | 0.00 | 56 | 945.7 | |
| 20260510162136 | 60 | 0.0 | 0.0 | 0.00 | 0.00 | 0.00 | 56 | 945.7 | |
| 20260510161836 | 61 | 0.0 | 0.0 | 0.00 | 0.00 | 0.00 | 54 | 945.0 | |
| 20260510161536 | 61 | 0.0 | 0.0 | 0.00 | 0.00 | 0.00 | 54 | 945.0 | |
| 20260510161236 | 61 | 0.0 | 0.0 | 0.00 | 0.00 | 0.00 | 54 | 945.0 | |
| 20260510160935 | 61 | 0.0 | 0.0 | 0.00 | 0.00 | 0.00 | 54 | 945.0 | |
| 20260510160336 | 62 | 0.0 | 0.0 | 0.00 | 0.00 | 0.00 | 54 | 945.0 | |
| 20260510160036 | 62 | 0.0 | 0.0 | 0.00 | 0.00 | 0.00 | 54 | 945.0 | |
| 20260510154836 | 62 | 0.0 | 0.0 | 0.00 | 0.00 | 0.00 | 54 | 945.0 | |
| 20260510154536 | 61 | 0.0 | 0.0 | 0.00 | 0.00 | 0.00 | 55 | 945.0 | |
| 20260510154235 | 61 | 0.0 | 0.0 | 0.00 | 0.00 | 0.00 | 55 | 945.0 | |
| 20260510153935 | 61 | 0.0 | 0.0 | 0.00 | 0.00 | 0.00 | 55 | 945.0 | |
| 20260510153636 | 61 | 0.0 | 0.0 | 0.00 | 0.00 | 0.00 | 56 | 945.4 | |
| 20260510153336 | 61 | 0.0 | 0.0 | 0.00 | 0.00 | 0.00 | 56 | 945.4 | |
| 20260510153035 | 61 | 0.0 | 0.0 | 0.00 | 0.00 | 0.00 | 56 | 945.4 | |
| 20260510152735 | 61 | 0.0 | 0.0 | 0.00 | 0.00 | 0.00 | 56 | 945.4 | |
| 20260510152435 | 61 | 0.0 | 0.0 | 0.00 | 0.00 | 0.00 | 56 | 945.0 | |
| 20260510152136 | 62 | 0.0 | 0.0 | 0.00 | 0.00 | 0.00 | 57 | 945.0 | |
| 20260510151836 | 62 | 0.0 | 0.0 | 0.00 | 0.00 | 0.00 | 57 | 945.0 | |
| 20260510151536 | 62 | 0.0 | 0.0 | 0.00 | 0.00 | 0.00 | 57 | 945.0 | |
| 20260510151235 | 63 | 0.0 | 0.0 | 0.00 | 0.00 | 0.00 | 55 | 945.0 | |
| 20260510150936 | 63 | 0.0 | 0.0 | 0.00 | 0.00 | 0.00 | 55 | 945.0 | |
| 20260510150636 | 63 | 0.0 | 0.0 | 0.00 | 0.00 | 0.00 | 55 | 945.0 | |
| 20260510150338 | 63 | 0.0 | 0.0 | 0.00 | 0.00 | 0.00 | 55 | 945.0 | |
| 20260510150036 | 64 | 0.0 | 0.0 | 0.00 | 0.00 | 0.00 | 54 | 945.0 | |
| 20260510145736 | 64 | 0.0 | 0.0 | 0.00 | 0.00 | 0.00 | 54 | 945.0 | |
| 20260510145136 | 64 | 0.0 | 0.0 | 0.00 | 0.00 | 0.00 | 54 | 945.0 | |
| 20260510144836 | 64 | 0.0 | 0.0 | 0.00 | 0.00 | 0.00 | 54 | 945.0 | |
| 20260510144235 | 65 | 0.0 | 0.0 | 0.00 | 0.00 | 0.00 | 52 | 945.4 | |
| 20260510143036 | 65 | 0.0 | 0.0 | 0.00 | 0.00 | 0.00 | 52 | 945.0 | |
| 20260510142436 | 64 | 0.0 | 0.0 | 0.00 | 0.00 | 0.00 | 51 | 945.0 | |
| 20260510141836 | 63 | 0.0 | 0.0 | 0.00 | 0.00 | 0.00 | 54 | 945.0 | |
| 20260510141536 | 63 | 0.0 | 0.0 | 0.00 | 0.00 | 0.00 | 54 | 945.0 | |
| 20260510141235 | 63 | 0.0 | 0.0 | 0.00 | 0.00 | 0.00 | 54 | 945.0 | |
| 20260510140636 | 63 | 0.0 | 0.0 | 0.00 | 0.00 | 0.00 | 54 | 945.0 | |
| 20260510140335 | 63 | 0.0 | 0.0 | 0.00 | 0.00 | 0.00 | 54 | 945.0 | |
| 20260510140036 | 63 | 0.0 | 0.0 | 0.00 | 0.00 | 0.00 | 54 | 945.0 | |
| 20260510135735 | 64 | 0.0 | 0.0 | 0.00 | 0.00 | 0.00 | 54 | 945.8 | |
| 20260510135436 | 64 | 0.0 | 0.0 | 0.00 | 0.00 | 0.00 | 54 | 945.8 | |
| 20260510134836 | 64 | 0.0 | 0.0 | 0.00 | 0.00 | 0.00 | 54 | 945.8 | |
| 20260510134535 | 64 | 0.0 | 0.0 | 0.00 | 0.00 | 0.00 | 54 | 945.8 | |
| 20260510134236 | 64 | 0.0 | 0.0 | 0.00 | 0.00 | 0.00 | 54 | 945.8 | |
| 20260510133935 | 64 | 0.0 | 0.0 | 0.00 | 0.00 | 0.00 | 54 | 945.8 | |
| 20260510133636 | 64 | 0.0 | 0.0 | 0.00 | 0.00 | 0.00 | 54 | 945.8 | |
| 20260510133335 | 64 | 0.0 | 0.0 | 0.00 | 0.00 | 0.00 | 52 | 945.0 | |
| 20260510133036 | 64 | 0.0 | 0.0 | 0.00 | 0.00 | 0.00 | 52 | 945.0 | |
| 20260510132736 | 64 | 0.0 | 0.0 | 0.00 | 0.00 | 0.00 | 52 | 945.0 | |
| 20260510132436 | 65 | 0.0 | 0.0 | 0.00 | 0.00 | 0.00 | 51 | 945.0 | |
| 20260510132135 | 65 | 0.0 | 0.0 | 0.00 | 0.00 | 0.00 | 51 | 945.0 | |
| 20260510131835 | 66 | 0.0 | 0.0 | 0.00 | 0.00 | 0.00 | 54 | 945.0 | |
| 20260510131236 | 66 | 0.0 | 0.0 | 0.00 | 0.00 | 0.00 | 54 | 945.0 | |
| 20260510130936 | 66 | 0.0 | 0.0 | 0.00 | 0.00 | 0.00 | 54 | 945.0 | |
| 20260510130636 | 66 | 0.0 | 0.0 | 0.00 | 0.00 | 0.00 | 54 | 945.0 | |
| 20260510130336 | 66 | 0.0 | 0.0 | 0.00 | 0.00 | 0.00 | 54 | 945.0 | |
| 20260510130036 | 66 | 0.0 | 0.0 | 0.00 | 0.00 | 0.00 | 54 | 945.0 | |
| 20260510125735 | 65 | 0.0 | 0.0 | 0.00 | 0.00 | 0.00 | 54 | 946.0 | |
| 20260510125436 | 64 | 0.0 | 0.0 | 0.00 | 0.00 | 0.00 | 55 | 946.0 | |
| 20260510125136 | 64 | 0.0 | 0.0 | 0.00 | 0.00 | 0.00 | 55 | 946.0 | |
| 20260510124835 | 64 | 0.0 | 0.0 | 0.00 | 0.00 | 0.00 | 55 | 946.0 | |
| 20260510124536 | 65 | 0.0 | 0.0 | 0.00 | 0.00 | 0.00 | 56 | 946.0 | |
| 20260510124235 | 65 | 0.0 | 0.0 | 0.00 | 0.00 | 0.00 | 56 | 946.0 | |
| 20260510123936 | 65 | 0.0 | 0.0 | 0.00 | 0.00 | 0.00 | 56 | 946.0 | |
| 20260510123636 | 64 | 0.0 | 0.0 | 0.00 | 0.00 | 0.00 | 55 | 946.0 | |
| 20260510123336 | 64 | 0.0 | 0.0 | 0.00 | 0.00 | 0.00 | 55 | 946.0 | |
| 20260510123036 | 63 | 0.0 | 0.0 | 0.00 | 0.00 | 0.00 | 57 | 946.0 | |
| 20260510122736 | 63 | 0.0 | 0.0 | 0.00 | 0.00 | 0.00 | 57 | 946.0 | |
| 20260510122136 | 63 | 0.0 | 0.0 | 0.00 | 0.00 | 0.00 | 58 | 946.0 | |
| 20260510121836 | 63 | 0.0 | 0.0 | 0.00 | 0.00 | 0.00 | 58 | 946.0 | |
| 20260510121536 | 63 | 0.0 | 0.0 | 0.00 | 0.00 | 0.00 | 58 | 946.0 | |
| 20260510121235 | 63 | 0.0 | 0.0 | 0.00 | 0.00 | 0.00 | 58 | 946.0 | |
| 20260510120636 | 63 | 0.0 | 0.0 | 0.00 | 0.00 | 0.00 | 58 | 946.0 | |
| 20260510120336 | 63 | 0.0 | 0.0 | 0.00 | 0.00 | 0.00 | 58 | 946.0 | |
| 20260510120036 | 63 | 0.0 | 0.0 | 0.00 | 0.00 | 0.00 | 58 | 946.0 | |
| 20260510115736 | 63 | 0.0 | 0.0 | 0.00 | 0.00 | 0.00 | 58 | 946.0 | |
| 20260510115135 | 62 | 0.0 | 0.0 | 0.00 | 0.00 | 0.00 | 59 | 946.0 | |
| 20260510114835 | 61 | 0.0 | 0.0 | 0.00 | 0.00 | 0.00 | 60 | 946.9 | |
| 20260510114536 | 61 | 0.0 | 0.0 | 0.00 | 0.00 | 0.00 | 60 | 946.9 | |
| 20260510114236 | 61 | 0.0 | 0.0 | 0.00 | 0.00 | 0.00 | 60 | 946.9 | |
| 20260510113935 | 61 | 0.0 | 0.0 | 0.00 | 0.00 | 0.00 | 59 | 946.0 | |
| 20260510113636 | 62 | 0.0 | 0.0 | 0.00 | 0.00 | 0.00 | 58 | 946.0 | |
| 20260510113336 | 63 | 0.0 | 0.0 | 0.00 | 0.00 | 0.00 | 57 | 946.0 | |
| 20260510113036 | 63 | 0.0 | 0.0 | 0.00 | 0.00 | 0.00 | 57 | 946.0 | |
| 20260510112736 | 63 | 0.0 | 0.0 | 0.00 | 0.00 | 0.00 | 57 | 946.0 | |
| 20260510112436 | 63 | 0.0 | 0.0 | 0.00 | 0.00 | 0.00 | 57 | 947.0 | |
| 20260510112136 | 62 | 0.0 | 0.0 | 0.00 | 0.00 | 0.00 | 59 | 947.0 | |
| 20260510111835 | 62 | 0.0 | 0.0 | 0.00 | 0.00 | 0.00 | 59 | 947.0 | |
| 20260510111536 | 62 | 0.0 | 0.0 | 0.00 | 0.00 | 0.00 | 59 | 947.0 | |
| 20260510111236 | 62 | 0.0 | 0.0 | 0.00 | 0.00 | 0.00 | 59 | 947.0 | |
| 20260510110936 | 61 | 0.0 | 0.0 | 0.00 | 0.00 | 0.00 | 61 | 947.0 | |
| 20260510110636 | 60 | 0.0 | 0.0 | 0.00 | 0.00 | 0.00 | 61 | 947.0 | |
| 20260510110336 | 60 | 0.0 | 0.0 | 0.00 | 0.00 | 0.00 | 61 | 947.0 | |
| 20260510110036 | 61 | 0.0 | 0.0 | 0.00 | 0.00 | 0.00 | 62 | 946.0 | |
| 20260510105736 | 61 | 0.0 | 0.0 | 0.00 | 0.00 | 0.00 | 62 | 946.0 | |
| 20260510105136 | 62 | 0.0 | 0.0 | 0.00 | 0.00 | 0.00 | 60 | 946.0 | |
| 20260510104836 | 62 | 0.0 | 0.0 | 0.00 | 0.00 | 0.00 | 60 | 946.0 | |
| 20260510104536 | 62 | 0.0 | 0.0 | 0.00 | 0.00 | 0.00 | 60 | 946.0 | |
| 20260510104235 | 61 | 0.0 | 0.0 | 0.00 | 0.00 | 0.00 | 61 | 946.9 | |
| 20260510103936 | 60 | 0.0 | 0.0 | 0.00 | 0.00 | 0.00 | 63 | 947.0 | |
| 20260510103635 | 60 | 0.0 | 0.0 | 0.00 | 0.00 | 0.00 | 63 | 947.0 | |
| 20260510103335 | 58 | 0.0 | 0.0 | 0.00 | 0.00 | 0.00 | 65 | 947.0 | |
| 20260510103036 | 58 | 0.0 | 0.0 | 0.00 | 0.00 | 0.00 | 65 | 947.0 | |
| 20260510102736 | 58 | 0.0 | 0.0 | 0.00 | 0.00 | 0.00 | 65 | 947.0 | |
| 20260510102435 | 58 | 0.0 | 0.0 | 0.00 | 0.00 | 0.00 | 65 | 947.0 | |
| 20260510102135 | 58 | 0.0 | 0.0 | 0.00 | 0.00 | 0.00 | 65 | 947.0 | |
| 20260510101835 | 58 | 0.0 | 0.0 | 0.00 | 0.00 | 0.00 | 65 | 947.0 | |
| 20260510101535 | 58 | 0.0 | 0.0 | 0.00 | 0.00 | 0.00 | 65 | 947.0 | |
| 20260510101235 | 59 | 0.0 | 0.0 | 0.00 | 0.00 | 0.00 | 66 | 947.0 | |
| 20260510100936 | 58 | 0.0 | 0.0 | 0.00 | 0.00 | 0.00 | 68 | 947.0 | |
| 20260510100335 | 55 | 0.0 | 0.0 | 0.00 | 0.00 | 0.00 | 73 | 948.0 | |
| 20260510100036 | 54 | 0.0 | 0.0 | 0.00 | 0.00 | 0.00 | 77 | 948.3 | |
| 20260510095735 | 54 | 0.0 | 0.0 | 0.00 | 0.00 | 0.00 | 77 | 948.3 | |
| 20260510095436 | 54 | 0.0 | 0.0 | 0.00 | 0.00 | 0.00 | 77 | 948.3 | |
| 20260510095135 | 54 | 0.0 | 0.0 | 0.00 | 0.00 | 0.00 | 77 | 948.3 | |
| 20260510094835 | 54 | 0.0 | 0.0 | 0.00 | 0.00 | 0.00 | 77 | 948.0 | |
| 20260510094536 | 54 | 0.0 | 0.0 | 0.00 | 0.00 | 0.00 | 77 | 948.0 | |
| 20260510094235 | 54 | 0.0 | 0.0 | 0.00 | 0.00 | 0.00 | 77 | 948.0 | |
| 20260510093936 | 54 | 0.0 | 0.0 | 0.00 | 0.00 | 0.00 | 77 | 948.0 | |
| 20260510093636 | 54 | 0.0 | 0.0 | 0.00 | 0.00 | 0.00 | 78 | 947.0 | |
| 20260510093336 | 54 | 0.0 | 0.0 | 0.00 | 0.00 | 0.00 | 78 | 947.0 | |
| 20260510093036 | 54 | 0.0 | 0.0 | 0.00 | 0.00 | 0.00 | 78 | 947.0 | |
| 20260510092736 | 54 | 0.0 | 0.0 | 0.00 | 0.00 | 0.00 | 78 | 947.0 | |
| 20260510092136 | 55 | 0.0 | 0.0 | 0.00 | 0.00 | 0.00 | 79 | 947.0 | |
| 20260510091536 | 55 | 0.0 | 0.0 | 0.00 | 0.00 | 0.00 | 79 | 947.0 | |
| 20260510091236 | 56 | 0.0 | 0.0 | 0.00 | 0.00 | 0.00 | 77 | 947.0 | |
| 20260510090936 | 57 | 0.0 | 0.0 | 0.00 | 0.00 | 0.00 | 75 | 947.0 | |
| 20260510090636 | 57 | 0.0 | 0.0 | 0.00 | 0.00 | 0.00 | 73 | 947.0 | |
| 20260510090336 | 58 | 0.0 | 0.0 | 0.00 | 0.00 | 0.00 | 71 | 946.0 | |
| 20260510085736 | 58 | 0.0 | 0.0 | 0.00 | 0.00 | 0.00 | 71 | 946.7 | |
| 20260510085436 | 58 | 0.0 | 0.0 | 0.00 | 0.00 | 0.00 | 71 | 946.7 | |
| 20260510085136 | 58 | 0.0 | 0.0 | 0.00 | 0.00 | 0.00 | 70 | 946.0 | |
| 20260510084836 | 58 | 0.0 | 0.0 | 0.00 | 0.00 | 0.00 | 70 | 946.0 | |
| 20260510084535 | 59 | 0.0 | 0.0 | 0.00 | 0.00 | 0.00 | 68 | 946.0 | |
| 20260510084235 | 59 | 0.0 | 0.0 | 0.00 | 0.00 | 0.00 | 68 | 946.0 | |
| 20260510083936 | 59 | 0.0 | 0.0 | 0.00 | 0.00 | 0.00 | 68 | 946.0 | |
| 20260510083635 | 59 | 0.0 | 0.0 | 0.00 | 0.00 | 0.00 | 68 | 946.0 | |
| 20260510083336 | 59 | 0.0 | 0.0 | 0.00 | 0.00 | 0.00 | 66 | 946.0 | |
| 20260510083035 | 59 | 0.0 | 0.0 | 0.00 | 0.00 | 0.00 | 66 | 946.0 | |
| 20260510082735 | 60 | 0.0 | 0.0 | 0.00 | 0.00 | 0.00 | 65 | 946.0 | |
| 20260510082436 | 60 | 0.0 | 0.0 | 0.00 | 0.00 | 0.00 | 65 | 946.0 | |
| 20260510082136 | 60 | 0.0 | 0.0 | 0.00 | 0.00 | 0.00 | 65 | 946.0 | |
| 20260510081835 | 61 | 0.0 | 0.0 | 0.00 | 0.00 | 0.00 | 63 | 946.0 | |
| 20260510081536 | 61 | 0.0 | 0.0 | 0.00 | 0.00 | 0.00 | 63 | 946.0 | |
| 20260510080935 | 62 | 0.0 | 0.0 | 0.00 | 0.00 | 0.00 | 61 | 946.0 | |
| 20260510080336 | 64 | 0.0 | 0.0 | 0.00 | 0.00 | 0.00 | 59 | 946.0 | |
| 20260510075436 | 68 | 0.0 | 0.0 | 0.00 | 0.00 | 0.00 | 53 | 945.7 | |
| 20260510074836 | 69 | 0.0 | 0.0 | 0.00 | 0.00 | 0.00 | 56 | 945.0 | |
| 20260510074236 | 64 | 0.0 | 0.0 | 0.00 | 0.00 | 0.00 | 60 | 945.0 | |
| 20260510073935 | 60 | 0.0 | 0.0 | 0.00 | 0.00 | 0.00 | 64 | 945.0 | |
| 20260510073636 | 59 | 0.0 | 0.0 | 0.00 | 0.00 | 0.00 | 64 | 946.0 | |
| 20260510073335 | 59 | 0.0 | 0.0 | 0.00 | 0.00 | 0.00 | 64 | 946.0 | |
| 20260510072436 | 59 | 0.0 | 0.0 | 0.00 | 0.00 | 0.00 | 64 | 946.0 | |
| 20260510072135 | 59 | 0.0 | 0.0 | 0.00 | 0.00 | 0.00 | 64 | 946.0 | |
| 20260510071836 | 59 | 0.0 | 0.0 | 0.00 | 0.00 | 0.00 | 64 | 946.0 | |
| 20260510071536 | 58 | 0.0 | 0.0 | 0.00 | 0.00 | 0.00 | 64 | 946.0 | |
| 20260510071236 | 58 | 0.0 | 0.0 | 0.00 | 0.00 | 0.00 | 64 | 946.0 | |
| 20260510070935 | 59 | 0.0 | 0.0 | 0.00 | 0.00 | 0.00 | 65 | 946.0 | |
| 20260510070636 | 59 | 0.0 | 0.0 | 0.00 | 0.00 | 0.00 | 65 | 946.0 | |
| 20260510070335 | 59 | 0.0 | 0.0 | 0.00 | 0.00 | 0.00 | 65 | 946.0 | |
| 20260510070036 | 59 | 0.0 | 0.0 | 0.00 | 0.00 | 0.00 | 65 | 946.0 | |
| 20260510065735 | 59 | 0.0 | 0.0 | 0.00 | 0.00 | 0.00 | 65 | 946.0 | |
| 20260510065436 | 59 | 0.0 | 0.0 | 0.00 | 0.00 | 0.00 | 65 | 946.1 | |
| 20260510065135 | 58 | 0.0 | 0.0 | 0.00 | 0.00 | 0.00 | 68 | 946.0 | |
| 20260510064836 | 58 | 0.0 | 0.0 | 0.00 | 0.00 | 0.00 | 68 | 946.0 | |
| 20260510064236 | 56 | 0.0 | 0.0 | 0.00 | 0.00 | 0.00 | 71 | 946.0 | |
| 20260510063936 | 56 | 0.0 | 0.0 | 0.00 | 0.00 | 0.00 | 71 | 946.0 | |
| 20260510063635 | 55 | 0.0 | 0.0 | 0.00 | 0.00 | 0.00 | 73 | 946.0 | |
| 20260510063336 | 54 | 0.0 | 0.0 | 0.00 | 0.00 | 0.00 | 74 | 946.0 | |
| 20260510063036 | 54 | 0.0 | 0.0 | 0.00 | 0.00 | 0.00 | 74 | 946.0 | |
| 20260510062735 | 54 | 0.0 | 0.0 | 0.00 | 0.00 | 0.00 | 74 | 946.0 | |
| 20260510062136 | 54 | 0.0 | 0.0 | 0.00 | 0.00 | 0.00 | 74 | 946.0 | |
| 20260510061836 | 54 | 0.0 | 0.0 | 0.00 | 0.00 | 0.00 | 74 | 946.0 | |
| 20260510061535 | 54 | 0.0 | 0.0 | 0.00 | 0.00 | 0.00 | 74 | 946.0 | |
| 20260510061236 | 54 | 0.0 | 0.0 | 0.00 | 0.00 | 0.00 | 74 | 946.0 | |
| 20260510060935 | 54 | 0.0 | 0.0 | 0.00 | 0.00 | 0.00 | 74 | 946.0 | |
| 20260510060635 | 54 | 0.0 | 0.0 | 0.00 | 0.00 | 0.00 | 75 | 946.5 | |
| 20260510055735 | 54 | 0.0 | 0.0 | 0.00 | 0.00 | 0.00 | 75 | 946.5 | |
| 20260510055436 | 53 | 0.0 | 0.0 | 0.00 | 0.00 | 0.00 | 77 | 946.5 | |
| 20260510055136 | 53 | 0.0 | 0.0 | 0.00 | 0.00 | 0.00 | 77 | 946.5 | |
| 20260510054836 | 53 | 0.0 | 0.0 | 0.00 | 0.00 | 0.00 | 77 | 946.5 | |
| 20260510054535 | 53 | 0.0 | 0.0 | 0.00 | 0.00 | 0.00 | 77 | 946.5 | |
| 20260510053936 | 53 | 0.0 | 0.0 | 0.00 | 0.00 | 0.00 | 77 | 946.5 | |
| 20260510053635 | 53 | 0.0 | 0.0 | 0.00 | 0.00 | 0.00 | 77 | 946.5 | |
| 20260510053336 | 53 | 0.0 | 0.0 | 0.00 | 0.00 | 0.00 | 77 | 946.5 | |
| 20260510053036 | 53 | 0.0 | 0.0 | 0.00 | 0.00 | 0.00 | 77 | 946.5 | |
| 20260510052735 | 53 | 0.0 | 0.0 | 0.00 | 0.00 | 0.00 | 77 | 946.5 | |
| 20260510052436 | 53 | 0.0 | 0.0 | 0.00 | 0.00 | 0.00 | 77 | 946.5 | |
| 20260510052135 | 53 | 0.0 | 0.0 | 0.00 | 0.00 | 0.00 | 77 | 946.5 | |
| 20260510051836 | 53 | 0.0 | 0.0 | 0.00 | 0.00 | 0.00 | 77 | 946.5 | |
| 20260510051536 | 53 | 0.0 | 0.0 | 0.00 | 0.00 | 0.00 | 77 | 946.5 | |
| 20260510050935 | 53 | 0.0 | 0.0 | 0.00 | 0.00 | 0.00 | 77 | 946.5 | |
| 20260510050036 | 53 | 0.0 | 0.0 | 0.00 | 0.00 | 0.00 | 77 | 946.5 | |
| 20260510045736 | 53 | 0.0 | 0.0 | 0.00 | 0.00 | 0.00 | 77 | 946.5 | |
| 20260510045435 | 53 | 0.0 | 0.0 | 0.00 | 0.00 | 0.00 | 77 | 946.0 | |
| 20260510045135 | 53 | 0.0 | 0.0 | 0.00 | 0.00 | 0.00 | 77 | 946.0 | |
| 20260510044835 | 53 | 0.0 | 0.0 | 0.00 | 0.00 | 0.00 | 77 | 946.0 | |
| 20260510044536 | 53 | 0.0 | 0.0 | 0.00 | 0.00 | 0.00 | 77 | 946.0 | |
| 20260510044236 | 53 | 0.0 | 0.0 | 0.00 | 0.00 | 0.00 | 77 | 946.0 | |
| 20260510043936 | 53 | 0.0 | 0.0 | 0.00 | 0.00 | 0.00 | 77 | 946.0 | |
| 20260510043635 | 53 | 0.0 | 0.0 | 0.00 | 0.00 | 0.00 | 77 | 946.0 | |
| 20260510043335 | 53 | 0.0 | 0.0 | 0.00 | 0.00 | 0.00 | 77 | 946.0 | |
| 20260510043036 | 53 | 0.0 | 0.0 | 0.00 | 0.00 | 0.00 | 77 | 946.0 | |
| 20260510042736 | 53 | 0.0 | 0.0 | 0.00 | 0.00 | 0.00 | 77 | 946.0 | |
| 20260510042136 | 53 | 0.0 | 0.0 | 0.00 | 0.00 | 0.00 | 77 | 946.6 | |
| 20260510041836 | 53 | 0.0 | 0.0 | 0.00 | 0.00 | 0.00 | 77 | 946.6 | |
| 20260510041536 | 53 | 0.0 | 0.0 | 0.00 | 0.00 | 0.00 | 77 | 946.6 | |
| 20260510041236 | 53 | 0.0 | 0.0 | 0.00 | 0.00 | 0.00 | 77 | 946.6 | |
| 20260510040936 | 53 | 0.0 | 0.0 | 0.00 | 0.00 | 0.00 | 77 | 946.6 | |
| 20260510040636 | 53 | 0.0 | 0.0 | 0.00 | 0.00 | 0.00 | 77 | 946.6 | |
| 20260510040336 | 53 | 0.0 | 0.0 | 0.00 | 0.00 | 0.00 | 77 | 946.6 | |
| 20260510040036 | 53 | 0.0 | 0.0 | 0.00 | 0.00 | 0.00 | 76 | 946.0 | |
| 20260510035436 | 53 | 0.0 | 0.0 | 0.00 | 0.00 | 0.00 | 76 | 946.0 | |
| 20260510035136 | 53 | 0.0 | 0.0 | 0.00 | 0.00 | 0.00 | 76 | 946.0 | |
| 20260510034536 | 53 | 0.0 | 0.0 | 0.00 | 0.00 | 0.00 | 77 | 946.9 | |
| 20260510034236 | 53 | 0.0 | 0.0 | 0.00 | 0.00 | 0.00 | 77 | 946.9 | |
| 20260510033636 | 53 | 0.0 | 0.0 | 0.00 | 0.00 | 0.00 | 77 | 946.9 | |
| 20260510033335 | 53 | 0.0 | 0.0 | 0.00 | 0.00 | 0.00 | 77 | 946.9 | |
| 20260510033035 | 53 | 0.0 | 0.0 | 0.00 | 0.00 | 0.00 | 77 | 946.9 | |
| 20260510032435 | 53 | 0.0 | 0.0 | 0.00 | 0.00 | 0.00 | 77 | 946.9 | |
| 20260510032136 | 53 | 0.0 | 0.0 | 0.00 | 0.00 | 0.00 | 77 | 946.9 | |
| 20260510031836 | 53 | 0.0 | 0.0 | 0.00 | 0.00 | 0.00 | 77 | 946.9 | |
| 20260510031535 | 53 | 0.0 | 0.0 | 0.00 | 0.00 | 0.00 | 77 | 946.9 | |
| 20260510030936 | 53 | 0.0 | 0.0 | 0.00 | 0.00 | 0.00 | 77 | 946.9 | |
| 20260510030635 | 53 | 0.0 | 0.0 | 0.00 | 0.00 | 0.00 | 77 | 947.0 | |
| 20260510030336 | 53 | 0.0 | 0.0 | 0.00 | 0.00 | 0.00 | 77 | 947.0 | |
| 20260510030036 | 53 | 0.0 | 0.0 | 0.00 | 0.00 | 0.00 | 77 | 947.0 | |
| 20260510025736 | 53 | 0.0 | 0.0 | 0.00 | 0.00 | 0.00 | 77 | 947.0 | |
| 20260510025136 | 54 | 0.0 | 0.0 | 0.00 | 0.00 | 0.00 | 77 | 947.0 | |
| 20260510024836 | 54 | 0.0 | 0.0 | 0.00 | 0.00 | 0.00 | 77 | 947.0 | |
| 20260510024236 | 54 | 0.0 | 0.0 | 0.00 | 0.00 | 0.00 | 77 | 947.0 | |
| 20260510023635 | 54 | 0.0 | 0.0 | 0.00 | 0.00 | 0.00 | 77 | 947.0 | |
| 20260510023335 | 54 | 0.0 | 0.0 | 0.00 | 0.00 | 0.00 | 77 | 947.0 | |
| 20260510022736 | 54 | 0.0 | 0.0 | 0.00 | 0.00 | 0.00 | 77 | 947.0 | |
| 20260510022135 | 54 | 0.0 | 0.0 | 0.00 | 0.00 | 0.00 | 77 | 947.0 | |
| 20260510021904 | 54 | 0.0 | 0.0 | 0.00 | 0.00 | 0.00 | 77 | 947.0 | |
| 20260510021544 | 54 | 0.0 | 0.0 | 0.00 | 0.00 | 0.00 | 78 | 947.0 | |
| 20260510021235 | 54 | 0.0 | 0.0 | 0.00 | 0.00 | 0.00 | 78 | 947.0 | |
| 20260510020936 | 54 | 0.0 | 0.0 | 0.00 | 0.00 | 0.00 | 78 | 947.0 | |
| 20260510020636 | 54 | 0.0 | 0.0 | 0.00 | 0.00 | 0.00 | 78 | 947.0 | |
| 20260510020336 | 54 | 0.0 | 0.0 | 0.00 | 0.00 | 0.00 | 78 | 947.0 | |
| 20260510020035 | 54 | 0.0 | 0.0 | 0.00 | 0.00 | 0.00 | 78 | 947.0 | |
| 20260510015735 | 54 | 0.0 | 0.0 | 0.00 | 0.00 | 0.00 | 78 | 947.0 | |
| 20260510014836 | 54 | 0.0 | 0.0 | 0.00 | 0.00 | 0.00 | 78 | 947.0 | |
| 20260510014236 | 54 | 0.0 | 0.0 | 0.00 | 0.00 | 0.00 | 78 | 947.0 | |
| 20260510013935 | 54 | 0.0 | 0.0 | 0.00 | 0.00 | 0.00 | 77 | 947.1 | |
| 20260510013636 | 54 | 0.0 | 0.0 | 0.00 | 0.00 | 0.00 | 77 | 947.1 | |
| 20260510013335 | 54 | 0.0 | 0.0 | 0.00 | 0.00 | 0.00 | 77 | 947.1 | |
| 20260510013036 | 54 | 0.0 | 0.0 | 0.00 | 0.00 | 0.00 | 77 | 947.1 | |
| 20260510012735 | 54 | 0.0 | 0.0 | 0.00 | 0.00 | 0.00 | 77 | 947.1 | |
| 20260510012435 | 54 | 0.0 | 0.0 | 0.00 | 0.00 | 0.00 | 77 | 947.1 | |
| 20260510012136 | 54 | 0.0 | 0.0 | 0.00 | 0.00 | 0.00 | 77 | 947.1 | |
| 20260510011835 | 54 | 0.0 | 0.0 | 0.00 | 0.00 | 0.00 | 78 | 947.0 | |
| 20260510011536 | 54 | 0.0 | 0.0 | 0.00 | 0.00 | 0.00 | 78 | 947.0 | |
| 20260510011236 | 54 | 0.0 | 0.0 | 0.00 | 0.00 | 0.00 | 78 | 947.0 | |
| 20260510010935 | 54 | 0.0 | 0.0 | 0.00 | 0.00 | 0.00 | 78 | 947.0 | |
| 20260510010636 | 54 | 0.0 | 0.0 | 0.00 | 0.00 | 0.00 | 78 | 947.0 | |
| 20260510010335 | 54 | 0.0 | 0.0 | 0.00 | 0.00 | 0.00 | 78 | 947.0 | |
| 20260510010036 | 54 | 0.0 | 0.0 | 0.00 | 0.00 | 0.00 | 78 | 947.0 | |
| 20260510005435 | 54 | 0.0 | 0.0 | 0.00 | 0.00 | 0.00 | 77 | 947.4 | |
| 20260510005136 | 54 | 0.0 | 0.0 | 0.00 | 0.00 | 0.00 | 77 | 947.4 | |
| 20260510004835 | 54 | 0.0 | 0.0 | 0.00 | 0.00 | 0.00 | 77 | 947.4 | |
| 20260510004535 | 54 | 0.0 | 0.0 | 0.00 | 0.00 | 0.00 | 77 | 947.4 | |
| 20260510004236 | 54 | 0.0 | 0.0 | 0.00 | 0.00 | 0.00 | 77 | 947.4 | |
| 20260510003936 | 54 | 0.0 | 0.0 | 0.00 | 0.00 | 0.00 | 77 | 947.4 | |
| 20260510003636 | 54 | 0.0 | 0.0 | 0.00 | 0.00 | 0.00 | 77 | 947.4 | |
| 20260510003335 | 54 | 0.0 | 0.0 | 0.00 | 0.00 | 0.00 | 77 | 947.4 | |
| 20260510003035 | 54 | 0.0 | 0.0 | 0.00 | 0.00 | 0.00 | 77 | 947.4 | |
| 20260510002736 | 54 | 0.0 | 0.0 | 0.00 | 0.00 | 0.00 | 77 | 947.0 | |
| 20260510002435 | 54 | 0.0 | 0.0 | 0.00 | 0.00 | 0.00 | 77 | 947.0 | |
| 20260510002135 | 54 | 0.0 | 0.0 | 0.00 | 0.00 | 0.00 | 77 | 947.0 | |
| 20260510001536 | 54 | 0.0 | 0.0 | 0.00 | 0.00 | 0.00 | 77 | 947.0 | |
| 20260510000936 | 55 | 0.0 | 0.0 | 0.00 | 0.00 | 0.00 | 75 | 947.3 | |
| 20260510000635 | 55 | 0.0 | 0.0 | 0.00 | 0.00 | 0.00 | 75 | 947.3 | |
| 20260510000336 | 55 | 0.0 | 0.0 | 0.00 | 0.00 | 0.00 | 75 | 947.3 | |
| 20260510000036 | 55 | 0.0 | 0.0 | 0.00 | 0.00 | 0.00 | 75 | 947.3 | |
| 20260509235736 | 55 | 0.0 | 0.0 | 0.00 | 0.00 | 0.00 | 75 | 947.3 | |
| 20260509235435 | 55 | 0.0 | 0.0 | 0.00 | 0.00 | 0.00 | 75 | 947.3 | |
| 20260509235135 | 55 | 0.0 | 0.0 | 0.00 | 0.00 | 0.00 | 75 | 947.3 | |
| 20260509234835 | 55 | 0.0 | 0.0 | 0.00 | 0.00 | 0.00 | 75 | 947.3 | |
| 20260509234535 | 55 | 0.0 | 0.0 | 0.00 | 0.00 | 0.00 | 75 | 947.3 | |
| 20260509234236 | 55 | 0.0 | 0.0 | 0.00 | 0.00 | 0.00 | 75 | 947.3 | |
| 20260509233936 | 55 | 0.0 | 0.0 | 0.00 | 0.00 | 0.00 | 75 | 947.3 | |
| 20260509233636 | 55 | 0.0 | 0.0 | 0.00 | 0.00 | 0.00 | 75 | 947.3 | |
| 20260509233335 | 55 | 0.0 | 0.0 | 0.00 | 0.00 | 0.00 | 75 | 947.3 | |
| 20260509233036 | 55 | 0.0 | 0.0 | 0.00 | 0.00 | 0.00 | 75 | 947.0 | |
| 20260509232736 | 55 | 0.0 | 0.0 | 0.00 | 0.00 | 0.00 | 75 | 947.0 | |
| 20260509232435 | 55 | 0.0 | 0.0 | 0.00 | 0.00 | 0.00 | 75 | 947.0 | |
| 20260509232136 | 56 | 0.0 | 0.0 | 0.00 | 0.00 | 0.00 | 71 | 947.0 | |
| 20260509231535 | 56 | 0.0 | 0.0 | 0.00 | 0.00 | 0.00 | 71 | 947.0 | |
| 20260509231235 | 56 | 0.0 | 0.0 | 0.00 | 0.00 | 0.00 | 71 | 947.0 | |
| 20260509230936 | 56 | 0.0 | 0.0 | 0.00 | 0.00 | 0.00 | 71 | 947.0 | |
| 20260509230636 | 56 | 0.0 | 0.0 | 0.00 | 0.00 | 0.00 | 71 | 947.0 | |
| 20260509230336 | 56 | 0.0 | 0.0 | 0.00 | 0.00 | 0.00 | 71 | 947.0 | |
| 20260509230035 | 56 | 0.0 | 0.0 | 0.00 | 0.00 | 0.00 | 69 | 947.1 | |
| 20260509225436 | 56 | 0.0 | 0.0 | 0.00 | 0.00 | 0.00 | 69 | 947.1 | |
| 20260509224836 | 56 | 0.0 | 0.0 | 0.00 | 0.00 | 0.00 | 69 | 947.1 | |
| 20260509224536 | 56 | 0.0 | 0.0 | 0.00 | 0.00 | 0.00 | 69 | 947.1 | |
| 20260509224236 | 56 | 0.0 | 0.0 | 0.00 | 0.00 | 0.00 | 69 | 947.1 | |
| 20260509223636 | 56 | 0.0 | 0.0 | 0.00 | 0.00 | 0.00 | 70 | 946.0 | |
| 20260509223336 | 56 | 0.0 | 0.0 | 0.00 | 0.00 | 0.00 | 70 | 946.0 | |
| 20260509222736 | 56 | 0.0 | 0.0 | 0.00 | 0.00 | 0.00 | 70 | 946.0 | |
| 20260509222436 | 56 | 0.0 | 0.0 | 0.00 | 0.00 | 0.00 | 70 | 946.0 | |
| 20260509222135 | 56 | 0.0 | 0.0 | 0.00 | 0.00 | 0.00 | 70 | 946.0 | |
| 20260509221536 | 56 | 0.0 | 0.0 | 0.00 | 0.00 | 0.00 | 70 | 946.0 | |
| 20260509221236 | 56 | 0.0 | 0.0 | 0.00 | 0.00 | 0.00 | 70 | 946.0 | |
| 20260509220936 | 56 | 0.0 | 0.0 | 0.00 | 0.00 | 0.00 | 70 | 946.0 | |
| 20260509220636 | 56 | 0.0 | 0.0 | 0.00 | 0.00 | 0.00 | 70 | 946.0 | |
| 20260509220036 | 57 | 0.0 | 0.0 | 0.00 | 0.00 | 0.00 | 70 | 946.0 | |
| 20260509215436 | 57 | 0.0 | 0.0 | 0.00 | 0.00 | 0.00 | 70 | 946.0 | |
| 20260509215135 | 57 | 0.0 | 0.0 | 0.00 | 0.00 | 0.00 | 70 | 946.0 | |
| 20260509214836 | 57 | 0.0 | 0.0 | 0.00 | 0.00 | 0.00 | 70 | 946.0 | |
| 20260509214536 | 57 | 0.0 | 0.0 | 0.00 | 0.00 | 0.00 | 70 | 946.0 | |
| 20260509213936 | 57 | 0.0 | 0.0 | 0.00 | 0.00 | 0.00 | 70 | 946.0 | |
| 20260509213336 | 57 | 0.0 | 0.0 | 0.00 | 0.00 | 0.00 | 70 | 946.0 | |
| 20260509212736 | 58 | 0.0 | 0.0 | 0.00 | 0.00 | 0.00 | 68 | 946.0 | |
| 20260509212436 | 58 | 0.0 | 0.0 | 0.00 | 0.00 | 0.00 | 68 | 946.0 | |
| 20260509212136 | 58 | 0.0 | 0.0 | 0.00 | 0.00 | 0.00 | 68 | 946.0 | |
| 20260509211535 | 58 | 0.0 | 0.0 | 0.00 | 0.00 | 0.00 | 67 | 946.0 | |
| 20260509211236 | 58 | 0.0 | 0.0 | 0.00 | 0.00 | 0.00 | 67 | 946.0 | |
| 20260509210635 | 59 | 0.0 | 0.0 | 0.00 | 0.00 | 0.00 | 67 | 946.0 | |
| 20260509210336 | 59 | 0.0 | 0.0 | 0.00 | 0.00 | 0.00 | 67 | 945.9 | |
| 20260509205736 | 59 | 0.0 | 0.0 | 0.00 | 0.00 | 0.00 | 67 | 945.9 | |
| 20260509205435 | 59 | 0.0 | 0.0 | 0.00 | 0.00 | 0.00 | 67 | 945.9 | |
| 20260509205136 | 59 | 0.0 | 0.0 | 0.00 | 0.00 | 0.00 | 67 | 945.9 | |
| 20260509204535 | 60 | 0.0 | 0.0 | 0.00 | 0.00 | 0.00 | 66 | 945.0 | |
| 20260509204236 | 60 | 0.0 | 0.0 | 0.00 | 0.00 | 0.00 | 66 | 945.0 | |
| 20260509203935 | 60 | 0.0 | 0.0 | 0.00 | 0.00 | 0.00 | 66 | 945.0 | |
| 20260509203635 | 60 | 0.0 | 0.0 | 0.00 | 0.00 | 0.00 | 65 | 945.4 | |
| 20260509203036 | 60 | 0.0 | 0.0 | 0.00 | 0.00 | 0.00 | 63 | 945.0 | |
| 20260509202735 | 60 | 0.0 | 0.0 | 0.00 | 0.00 | 0.00 | 63 | 945.0 | |
| 20260509202435 | 60 | 0.0 | 0.0 | 0.00 | 0.00 | 0.00 | 63 | 945.0 | |
| 20260509202136 | 61 | 0.0 | 0.0 | 0.00 | 0.00 | 0.00 | 59 | 945.0 | |
| 20260509201835 | 61 | 0.0 | 0.0 | 0.00 | 0.00 | 0.00 | 59 | 945.0 | |
| 20260509200936 | 61 | 0.0 | 0.0 | 0.00 | 0.00 | 0.00 | 59 | 945.0 | |
| 20260509200635 | 61 | 0.0 | 0.0 | 0.00 | 0.00 | 0.00 | 58 | 944.0 | |
| 20260509200336 | 61 | 0.0 | 0.0 | 0.00 | 0.00 | 0.00 | 58 | 944.0 | |
| 20260509200036 | 61 | 0.0 | 0.0 | 0.00 | 0.00 | 0.00 | 58 | 944.0 | |
| 20260509195136 | 60 | 0.0 | 0.0 | 0.00 | 0.00 | 0.00 | 59 | 944.4 | |
| 20260509194836 | 60 | 0.0 | 0.0 | 0.00 | 0.00 | 0.00 | 59 | 944.4 | |
| 20260509194536 | 60 | 0.0 | 0.0 | 0.00 | 0.00 | 0.00 | 59 | 944.4 |